This is the latest recevied weather packets stored in our database for station/object KC8ZBC. If no packets are shown the sender has not sent any weather packets the latest 10 day(s).
| Time | Temp. | Humidity | Pressure | Rain* | Wind** | Luminosity | Snow |
|---|---|---|---|---|---|---|---|
| 1777769843 | 5° C | 64% | 990.4 hPa | 0 mm | - | 0 W/m² | - |
| 1777769540 | 5° C | 63% | 990.1 hPa | 0 mm | - | 0 W/m² | - |
| 1777769235 | 5° C | 61% | 990.3 hPa | 0 mm | - | 0 W/m² | - |
| 1777768934 | 5.56° C | 60% | 990.3 hPa | 0 mm | - | 0 W/m² | - |
| 1777768631 | 5.56° C | 61% | 990.4 hPa | 0 mm | - | 0 W/m² | - |
| 1777768328 | 5.56° C | 58% | 990.1 hPa | 0 mm | - | 0 W/m² | - |
| 1777768024 | 5.56° C | 56% | 990.2 hPa | 0 mm | - | 0 W/m² | - |
| 1777767721 | 6.11° C | 55% | 990.3 hPa | 0 mm | - | 2 W/m² | - |
| 1777767417 | 6.11° C | 54% | 990.4 hPa | 0 mm | - | 4 W/m² | - |
| 1777767114 | 6.11° C | 52% | 990.2 hPa | 0 mm | - | 5 W/m² | - |
| 1777766812 | 6.67° C | 53% | 990.2 hPa | 0 mm | - | 9 W/m² | - |
| 1777766509 | 6.67° C | 52% | 990.4 hPa | 0 mm | - | 9 W/m² | - |
| 1777766206 | 6.67° C | 51% | 990.2 hPa | 0 mm | - | 10 W/m² | - |
| 1777765904 | 6.67° C | 50% | 990.4 hPa | 0 mm | - | 12 W/m² | - |
| 1777765599 | 7.22° C | 49% | 990.4 hPa | 0 mm | - | 11 W/m² | - |
| 1777765297 | 7.22° C | 48% | 990.3 hPa | 0 mm | - | 12 W/m² | - |
| 1777764993 | 7.78° C | 46% | 990.7 hPa | 0 mm | - | 13 W/m² | - |
| 1777764690 | 7.78° C | 47% | 990.4 hPa | 0 mm | - | 15 W/m² | - |
| 1777764385 | 8.33° C | 44% | 990.4 hPa | 0 mm | - | 17 W/m² | - |
| 1777764083 | 7.78° C | 45% | 990.4 hPa | 0 mm | - | 28 W/m² | - |
| 1777763780 | 7.78° C | 43% | 990.4 hPa | 0 mm | - | 32 W/m² | - |
| 1777763478 | 8.33° C | 44% | 990.4 hPa | 0 mm | - | 29 W/m² | - |
| 1777763176 | 8.33° C | 45% | 990.5 hPa | 0 mm | - | 27 W/m² | - |
| 1777762874 | 8.89° C | 46% | 990.4 hPa | 0 mm | - | 31 W/m² | - |
| 1777762569 | 8.89° C | 44% | 990.5 hPa | 0 mm | - | 83 W/m² | - |
* Rain latest hour (hover to see other rain measurements)
** Current wind speed in m/s (hover to see current wind gust speed)